Weather History for Hermosillo, Mexico

Change the Weather History Date:

Sunday, October 2, 2011

  Actual Average Record
Temperature  
Mean Temperature 92 °F -  
Max Temperature 107 °F 89 °F 104 °F (1996)
Min Temperature 78 °F 63 °F 64 °F (2002)
Cooling Degree Days 28    
Growing Degree Days 42 (Base 50)    
Moisture  
Dew Point 55 °F    
Average Humidity 33    
Maximum Humidity 54    
Minimum Humidity 14    
Precipitation  
Precipitation 0.00 in - - ()
Sea Level Pressure  
Sea Level Pressure 29.89 in    
Wind  
Wind Speed 2 mph ()    
Max Wind Speed 9 mph    
Max Gust Speed -    
Visibility 9.8 miles    
Events      
Averages and records for this station are not official NWS values.
T = Trace of Precipitation, MM = Missing Value Source: Averaged Metar Reports

Daily Weather History Graph

Daily Weather History Graph

Search for Another Location

Airport:

Trip Planner

Search our weather history database for the weather conditions in past years. The results will help you decide how hot, cold, wet, or windy it might be!

Date:

Astronomy

Oct. 02, 2011 Rise Set
Actual Time 7:17 AM MDT 7:08 PM MDT
Civil Twilight 6:54 AM MDT 7:32 PM MDT
Nautical Twilight 6:26 AM MDT 8:00 PM MDT
Astronomical Twilight 5:59 AM MDT 8:27 PM MDT
Moon 1:01 PM MDT (10/2) 11:37 PM MDT (10/2)
Length of Visible Light 12h 38m
Length of Day
11h 51m
Waxing Crescent, 35% of the Moon is Illuminated
Oct 2
Waxing Crescent
Oct 3
First Quarter
Oct 11
Full
Oct 19
Last Quarter
Oct 26
New

Hourly Weather History & Observations

Time (MDT) Temp. Heat Index Dew Point Humidity Pressure Visibility Wind Dir Wind Speed Gust Speed Precip Events Conditions
12:43 AM 82.4 °F 81.7 °F 55.4 °F 39% 29.89 in 10.0 mi Calm Calm - N/A   Clear
1:42 AM 80.6 °F 80.8 °F 57.2 °F 45% 29.90 in 10.0 mi Calm Calm - N/A   Clear
2:43 AM 78.8 °F - 57.2 °F 47% 29.85 in 10.0 mi Calm Calm - N/A   Clear
3:41 AM 78.8 °F - 60.8 °F 54% 29.89 in 10.0 mi Calm Calm - N/A   Clear
4:47 AM 78.8 °F - 59.0 °F 51% 29.89 in 10.0 mi Calm Calm - N/A   Clear
5:44 AM 78.8 °F - 59.0 °F 51% 29.85 in 10.0 mi Calm Calm - N/A   Clear
6:49 AM 78.8 °F - 59.0 °F 51% 29.92 in 10.0 mi Calm Calm - N/A   Clear
7:40 AM 78.8 °F - 59.0 °F 51% 29.93 in 10.0 mi Calm Calm - N/A   Scattered Clouds
8:47 AM 82.4 °F 82.0 °F 57.2 °F 42% 29.96 in 10.0 mi Calm Calm - N/A   Mostly Cloudy
9:52 AM 89.6 °F 88.1 °F 57.2 °F 33% 29.96 in 10.0 mi NNE 4.6 mph - N/A   Scattered Clouds
10:46 AM 93.2 °F 91.3 °F 55.4 °F 28% 29.96 in 10.0 mi North 6.9 mph - N/A   Scattered Clouds
11:50 AM 96.8 °F 95.1 °F 55.4 °F 25% 29.96 in 10.0 mi SE 4.6 mph - N/A   Scattered Clouds
12:54 PM 100.4 °F 98.4 °F 53.6 °F 21% 29.93 in 10.0 mi SSW 4.6 mph - N/A   Scattered Clouds
1:48 PM 100.4 °F - 51.8 °F 20% 29.91 in 10.0 mi SSW 6.9 mph - N/A   Scattered Clouds
2:43 PM 104.0 °F - 46.4 °F 14% 29.86 in 10.0 mi SSW 6.9 mph - N/A   Scattered Clouds
3:46 PM 104.0 °F - 46.4 °F 14% 29.86 in 10.0 mi South 9.2 mph - N/A   Scattered Clouds
4:46 PM 104.0 °F - 48.2 °F 15% 29.84 in 10.0 mi South 9.2 mph - N/A   Scattered Clouds
5:43 PM 102.2 °F - 48.2 °F 16% 29.78 in 10.0 mi South 6.9 mph - N/A   Partly Cloudy
6:51 PM 100.4 °F - 44.6 °F 15% 29.84 in 10.0 mi SSW 9.2 mph - N/A   Partly Cloudy
7:41 PM 96.8 °F - 51.8 °F 22% 29.86 in 10.0 mi SSW 9.2 mph - N/A   Scattered Clouds
8:47 PM 91.4 °F - 51.8 °F 26% 29.83 in 10.0 mi SSW 6.9 mph - N/A   Scattered Clouds
9:53 PM 87.8 °F - 51.8 °F 29% 29.92 in 10.0 mi Calm Calm - N/A   Clear
10:47 PM 86.0 °F 85.4 °F 59.0 °F 40% 29.93 in 10.0 mi South 5.8 mph - N/A   Clear
11:30 PM 87 °F - 58 °F 27% 29.90 in 5 mi SSE 2.2 mph - -   Scattered Clouds
11:43 PM 86.0 °F 86.6 °F 62.6 °F 45% 29.91 in 10.0 mi Calm Calm - N/A   Clear